Date String (YYYY-MM-DD hh:mm:ss) UTC,Instrument flags,Ambient pressure (hPa),Sample flow (lpm),Bypass flow (lpm),Sample temperature (°C),Ambient temperature (°C),ASC tube jacket temperature (°C),LED temperature (°C),Box temperature (°C),Sample RH (%),Span deviation,Mass concentration (μg/m³),Mass concentration (μg/m³),Mass concentration (μg/m³)
DateTimeUTC,F1_M11,P_M11,Q1_M11,Q2_M11,T1_M11,T2_M11,T3_M11,T4_M11,T5_M11,U1_M11,ZSPAN_M11,X0_M11,X2_M11,X1_M11
2022-04-30 06:00:00,,0823.9,5.00,0.00,23.7,22.9,00.0,32.6,25.5,12.0,0000.0,0006.20,0001.77,0000.98
2022-04-30 06:01:00,,0823.9,5.00,0.00,23.7,22.9,00.0,32.6,25.5,12.0,0000.0,0005.66,0001.76,0000.98
2022-04-30 06:02:00,,0823.9,5.00,0.00,23.7,22.9,00.0,32.6,25.5,12.0,0000.0,0005.26,0001.75,0000.98
2022-04-30 06:03:00,,0823.8,4.99,0.00,23.7,22.9,00.0,32.6,25.5,12.0,0000.0,0004.89,0001.71,0000.96
2022-04-30 06:04:00,,0823.9,5.01,0.00,23.7,22.9,00.0,32.6,25.5,12.0,0000.0,0004.95,0001.70,0000.95
2022-04-30 06:05:00,,0823.9,5.01,0.00,23.7,22.9,00.0,32.6,25.5,12.0,0000.0,0004.92,0001.68,0000.95
2022-04-30 06:06:00,,0823.9,5.00,0.00,23.7,22.9,00.0,32.6,25.5,12.0,0000.0,0005.07,0001.69,0000.95
2022-04-30 06:07:00,,0823.9,5.00,0.00,23.7,22.9,00.0,32.6,25.5,12.0,0000.0,0006.12,0001.73,0000.95
2022-04-30 06:08:00,,0823.9,5.00,0.00,23.7,22.8,00.0,32.6,25.5,12.0,0000.0,0006.21,0001.76,0000.96
2022-04-30 06:09:00,,0823.8,5.00,0.00,23.7,22.8,00.0,32.6,25.5,12.0,0000.0,0006.29,0001.79,0000.97
2022-04-30 06:10:00,,0823.9,5.00,0.00,23.6,22.8,00.0,32.6,25.4,12.0,0000.0,0006.66,0001.78,0000.98
2022-04-30 06:11:00,,0823.9,5.00,0.00,23.6,22.7,00.0,32.6,25.4,12.0,0000.0,0007.38,0001.82,0000.98
2022-04-30 06:12:00,,0823.9,5.01,0.00,23.6,22.7,00.0,32.6,25.3,12.0,0000.0,0006.52,0001.79,0000.99
2022-04-30 06:13:00,,0823.8,5.00,0.00,23.5,22.7,00.0,32.6,25.2,12.1,0000.0,0007.14,0001.75,0000.98
2022-04-30 06:14:00,,0823.9,5.00,0.00,23.5,22.7,00.0,32.6,25.2,12.1,0000.0,0007.60,0001.76,0000.97
2022-04-30 06:15:00,,0823.9,4.99,0.00,23.5,22.7,00.0,32.5,25.2,12.2,0000.0,0007.70,0001.71,0000.96
2022-04-30 06:16:00,,0823.9,5.00,0.00,23.5,22.7,00.0,32.5,25.2,12.2,0000.0,0007.76,0001.69,0000.95
2022-04-30 06:17:00,,0823.9,5.00,0.00,23.5,22.7,00.0,32.5,25.2,12.2,0000.0,0007.77,0001.66,0000.94
2022-04-30 06:18:00,,0823.9,5.02,0.00,23.5,22.7,00.0,32.5,25.2,12.2,0000.0,0007.99,0001.66,0000.93
2022-04-30 06:19:00,,0823.9,4.99,0.00,23.4,22.7,00.0,32.5,25.2,12.2,0000.0,0008.76,0001.67,0000.91
2022-04-30 06:20:00,,0823.9,5.00,0.00,23.4,22.6,00.0,32.5,25.2,12.2,0000.0,0009.41,0001.62,0000.89
2022-04-30 06:21:00,,0824.0,5.00,0.00,23.4,22.7,00.0,32.5,25.2,12.2,0000.0,0009.53,0001.65,0000.89
2022-04-30 06:22:00,,0824.0,5.00,0.00,23.4,22.7,00.0,32.5,25.2,12.2,0000.0,0008.79,0001.69,0000.90
2022-04-30 06:23:00,,0823.9,5.00,0.00,23.4,22.6,00.0,32.5,25.1,12.2,0000.0,0008.76,0001.69,0000.89
2022-04-30 06:24:00,,0824.0,4.99,0.00,23.4,22.6,00.0,32.4,25.1,12.2,0000.0,0008.46,0001.69,0000.89
2022-04-30 06:25:00,,0824.0,5.01,0.00,23.4,22.6,00.0,32.4,25.1,12.3,0000.0,0008.07,0001.70,0000.89
2022-04-30 06:26:00,,0824.0,5.00,0.00,23.3,22.5,00.0,32.4,25.1,12.3,0000.0,0008.05,0001.72,0000.90
2022-04-30 06:27:00,,0823.9,5.00,0.00,23.3,22.5,00.0,32.4,25.0,12.3,0000.0,0008.15,0001.72,0000.92
2022-04-30 06:28:00,,0824.0,4.99,0.00,23.3,22.5,00.0,32.4,25.0,12.4,0000.0,0008.18,0001.76,0000.92
2022-04-30 06:29:00,,0823.9,5.00,0.00,23.3,22.5,00.0,32.4,25.0,12.4,0000.0,0007.42,0001.75,0000.93
2022-04-30 06:30:00,,0824.0,5.01,0.00,23.3,22.5,00.0,32.4,25.1,12.4,0000.0,0005.93,0001.74,0000.95
2022-04-30 06:31:00,,0824.0,5.00,0.00,23.3,22.5,00.0,32.3,25.1,12.4,0000.0,0005.11,0001.74,0000.95
2022-04-30 06:32:00,,0824.0,5.00,0.00,23.3,22.5,00.0,32.3,25.0,12.4,0000.0,0005.08,0001.75,0000.95
2022-04-30 06:33:00,,0824.0,5.01,0.00,23.3,22.5,00.0,32.3,25.1,12.4,0000.0,0004.94,0001.66,0000.93
2022-04-30 06:34:00,,0824.0,5.01,0.00,23.3,22.5,00.0,32.3,25.0,12.4,0000.0,0006.26,0001.65,0000.92
2022-04-30 06:35:00,,0824.1,5.01,0.00,23.3,22.5,00.0,32.3,25.0,12.4,0000.0,0006.85,0001.65,0000.91
2022-04-30 06:36:00,,0824.1,5.00,0.00,23.3,22.5,00.0,32.3,25.1,12.4,0000.0,0007.36,0001.62,0000.90
2022-04-30 06:37:00,,0824.1,5.00,0.00,23.3,22.5,00.0,32.3,25.0,12.4,0000.0,0007.15,0001.58,0000.89
2022-04-30 06:38:00,,0824.0,5.00,0.00,23.3,22.5,00.0,32.3,25.0,12.4,0000.0,0006.76,0001.63,0000.87
2022-04-30 06:39:00,,0824.1,5.00,0.00,23.3,22.5,00.0,32.3,25.0,12.4,0000.0,0006.57,0001.61,0000.87
2022-04-30 06:40:00,,0824.0,5.00,0.00,23.3,22.5,00.0,32.3,25.1,12.4,0000.0,0006.55,0001.60,0000.85
2022-04-30 06:41:00,,0823.9,5.00,0.00,23.3,22.6,00.0,32.3,25.1,12.3,0000.0,0006.27,0001.58,0000.84
2022-04-30 06:42:00,,0824.0,5.01,0.00,23.3,22.6,00.0,32.3,25.1,12.4,0000.0,0006.17,0001.65,0000.85
2022-04-30 06:43:00,,0824.1,5.01,0.00,23.3,22.6,00.0,32.3,25.1,12.3,0000.0,0006.46,0001.65,0000.84
2022-04-30 06:44:00,,0824.1,5.00,0.00,23.3,22.6,00.0,32.3,25.1,12.3,0000.0,0006.42,0001.63,0000.84
2022-04-30 06:45:00,,0824.1,5.00,0.00,23.4,22.7,00.0,32.3,25.1,12.3,0000.0,0005.00,0001.61,0000.83
2022-04-30 06:46:00,,0824.0,5.00,0.00,23.4,22.7,00.0,32.3,25.1,12.2,0000.0,0004.34,0001.59,0000.83
2022-04-30 06:47:00,,0824.1,5.00,0.00,23.4,22.7,00.0,32.3,25.1,12.2,0000.0,0003.72,0001.61,0000.84
2022-04-30 06:48:00,,0824.0,5.00,0.00,23.4,22.7,00.0,32.3,25.2,12.1,0000.0,0003.54,0001.57,0000.84
2022-04-30 06:49:00,,0824.1,5.00,0.00,23.4,22.7,00.0,32.3,25.2,12.1,0000.0,0003.55,0001.54,0000.85
2022-04-30 06:50:00,,0824.0,5.00,0.00,23.4,22.7,00.0,32.3,25.3,12.1,0000.0,0003.64,0001.51,0000.85
2022-04-30 06:51:00,,0824.1,5.00,0.00,23.5,22.7,00.0,32.3,25.3,12.0,0000.0,0003.57,0001.50,0000.85
2022-04-30 06:52:00,,0824.1,5.02,0.00,23.5,22.8,00.0,32.3,25.3,11.9,0000.0,0003.47,0001.48,0000.86
2022-04-30 06:53:00,,0824.1,4.99,0.00,23.5,22.8,00.0,32.4,25.4,11.9,0000.0,0003.59,0001.44,0000.86
2022-04-30 06:54:00,,0824.1,5.00,0.00,23.5,22.8,00.0,32.4,25.3,11.9,0000.0,0003.41,0001.40,0000.86
2022-04-30 06:55:00,,0824.1,5.00,0.00,23.5,22.8,00.0,32.4,25.3,11.9,0000.0,0003.54,0001.45,0000.88
2022-04-30 06:56:00,,0823.9,5.00,0.00,23.5,22.8,00.0,32.4,25.3,11.6,0000.0,0003.69,0001.50,0000.90
2022-04-30 06:57:00,,0824.1,5.00,0.00,23.5,22.7,00.0,32.4,25.2,11.6,0000.0,0003.61,0001.49,0000.92
2022-04-30 06:58:00,,0824.1,5.00,0.00,23.5,22.7,00.0,32.4,25.2,11.9,0000.0,0003.69,0001.51,0000.91
2022-04-30 06:59:00,,0824.1,5.01,0.00,23.4,22.6,00.0,32.4,25.1,12.0,0000.0,0003.96,0001.58,0000.91
